Temperature
20 20 20 20 19 19 19 19 18 18 18 18 18 18 18 18 17 17 17 17 17 17 16 16 16 16 16 16 16 15 15 15 14 14 14 14 14 14 13 13 13 13 13
20 20 20 20 20 19 19 19 19 18 18 18 18 18 18 18 17 17 17 17 17 17 16 16 16 16 16 16 15 15 15 15 14 14 14 14 14 14 13 13 13 13 13
20 20 20 20 20 20 19 19 19 19 18 18 18 18 18 18 17 17 17 17 17 16 16 16 16 16 16 15 15 15 15 14 14 14 14 14 14 13 13 13 13 13 13
20 20 20 20 20 20 19 19 19 19 18 18 18 18 18 18 17 17 17 17 17 16 16 16 16 15 15 15 15 15 15 14 14 14 14 14 13 13 13 13 13 13 13
20 20 20 20 20 20 20 19 19 19 18 18 18 18 17 17 17 17 17 17 17 16 16 16 16 15 15 15 15 15 15 14 14 14 14 13 13 13 13 13 13 13 13
20 20 20 20 20 20 19 19 19 19 18 18 18 18 18 17 17 17 17 17 17 16 16 16 16 15 15 15 15 15 14 14 14 14 14 13 13 13 13 13 13 12 12
20 20 20 20 20 20 19 19 19 19 18 18 18 18 17 17 17 17 17 17 17 16 16 16 16 15 15 15 15 15 14 14 14 14 13 13 13 13 13 13 13 12 12
21 20 20 20 20 20 19 19 19 19 18 18 18 18 17 17 17 17 17 17 16 16 16 16 16 15 15 15 15 14 14 14 14 13 13 13 13 13 13 13 12 12 12
21 21 21 20 20 20 19 19 19 19 19 18 18 18 17 17 17 17 17 16 16 16 16 16 16 15 15 15 14 14 14 14 14 14 13 13 13 13 12 12 12 12 12
21 21 21 20 20 20 20 19 19 19 19 18 18 18 17 17 17 17 16 16 16 16 16 16 16 15 15 15 14 14 14 14 14 14 13 13 13 13 12 12 12 12 12
21 21 20 20 20 20 20 19 19 19 18 18 18 17 17 17 17 17 16 16 16 16 16 16 16 15 15 15 14 14 14 14 14 13 13 13 13 13 13 12 12 12 12
20 20 20 20 20 20 19 19 19 18 18 18 17 17 17 17 17 17 16 16 16 15 16 15 15 15 15 14 14 14 14 13 13 13 13 13 13 13 13 12 12 12 12
20 20 20 20 20 19 19 19 18 18 18 18 17 17 17 17 17 17 16 16 16 15 15 15 15 15 15 14 14 14 14 13 13 13 13 13 13 13 13 12 12 12 12
20 20 19 19 19 19 19 18 18 18 18 18 17 17 17 17 17 17 16 16 16 15 15 15 15 15 14 14 14 14 14 13 13 13 13 13 13 13 12 12 12 12 11
19 19 19 19 19 19 18 18 18 18 18 17 17 17 17 17 16 16 16 16 15 15 15 15 15 14 14 14 14 14 14 13 13 13 13 13 12 12 12 12 12 12 11
19 19 19 19 18 18 18 18 18 17 17 17 17 17 16 16 16 15 15 15 15 15 14 14 14 14 14 14 14 13 13 13 13 13 13 12 12 12 12 12 11 11 11
18 19 18 18 18 18 18 17 17 17 17 16 16 16 16 16 15 15 15 15 14 14 14 14 14 14 14 13 13 13 13 13 13 13 13 12 12 12 12 11 11 11 11
18 18 18 18 18 17 17 17 17 17 16 16 16 16 15 15 15 15 14 14 14 14 14 14 14 14 13 13 13 13 13 13 12 12 12 12 12 11 11 11 11 11 11
17 17 17 17 17 17 16 16 16 16 16 15 15 15 15 15 14 14 14 14 14 14 14 14 14 13 13 13 13 13 12 12 12 12 12 11 11 11 11 11 11 10 10
17 17 16 16 16 16 16 16 16 15 15 15 15 14 14 14 14 14 14 14 14 14 13 13 13 13 13 13 12 12 12 12 12 12 11 11 11 11 10 10 10 10 10
16 16 16 16 16 16 15 15 15 15 15 15 14 14 14 14 14 14 13 13 13 13 13 13 13 13 12 12 12 12 12 12 11 11 11 11 11 10 10 10 10 9 9
16 16 16 16 16 15 15 15 15 14 14 14 14 14 14 13 13 13 13 13 13 13 13 12 12 12 12 12 12 11 11 11 11 11 11 10 10 10 9 9 9 9 9
16 15 15 15 15 15 15 14 14 14 14 14 14 14 13 13 13 13 13 13 13 12 12 12 12 12 12 11 11 11 11 11 11 10 10 10 10 9 9 9 9 9 9
15 15 15 14 14 14 14 14 14 14 13 13 13 13 13 13 13 12 12 12 12 12 12 11 11 11 11 11 11 11 11 10 10 10 10 9 9 9 9 9 8 8 8
14 14 14 14 14 14 14 14 13 13 13 13 13 13 13 12 12 12 12 12 11 11 11 11 11 11 11 10 10 10 10 10 10 9 9 9 9 9 8 8 8 8 8
14 14 14 14 14 14 13 13 13 13 13 12 12 12 12 12 11 11 11 11 11 10 10 10 10 10 10 10 10 10 10 9 9 9 9 8 8 8 8 8 8 8 7
Wind_Speed
8 7 6 5 5 4 4 4 3 2 2 3 2 2 2 2 2 2 2 2 2 1 1 1 1 1 2 2 2 3 2 2 2 1 1 1 2 1 0 1 1 1 0
8 7 7 5 5 5 4 4 4 3 3 3 2 2 2 2 2 3 2 2 2 2 1 1 1 1 2 2 3 3 2 2 3 2 1 1 2 2 1 1 1 1 1
7 7 6 6 6 6 5 4 4 4 3 3 3 3 3 3 3 3 3 2 2 2 2 2 2 2 2 2 3 3 3 2 2 2 1 1 1 1 1 1 1 1 2
8 8 7 7 7 6 5 5 4 4 4 3 3 3 3 3 3 3 3 3 3 2 2 3 3 3 4 4 3 3 3 3 2 2 1 1 1 1 1 1 1 1 2
8 8 8 7 6 5 5 5 4 4 4 4 3 3 3 3 3 4 4 4 3 3 2 3 3 3 4 4 3 4 4 3 3 2 2 1 2 2 2 2 3 2 2
9 9 8 7 6 6 6 5 5 4 4 4 4 4 4 3 4 5 5 3 3 3 3 3 3 3 4 5 5 5 6 5 4 3 3 3 4 4 3 3 2 1 2
8 8 8 7 7 7 6 5 6 6 5 4 4 4 4 4 5 6 6 4 3 3 3 3 2 2 3 3 3 4 5 5 6 5 5 5 5 6 5 4 4 4 4
9 9 8 8 8 7 6 7 6 5 4 4 4 4 4 5 6 6 6 4 3 3 3 4 3 3 3 3 3 2 3 4 5 5 5 6 6 5 6 5 5 3 2
9 9 9 9 8 7 7 7 6 5 5 5 4 5 5 5 5 6 5 3 3 3 3 3 4 4 5 5 4 3 3 4 4 5 6 6 5 5 5 3 2 3 3
10 9 9 9 9 9 8 7 5 5 5 5 5 5 6 6 6 7 7 3 3 3 3 3 5 5 5 6 5 5 5 6 4 3 3 4 4 4 6 6 5 4 3
8 8 8 8 8 8 7 5 5 5 5 5 5 5 5 6 6 6 7 5 5 4 4 4 4 5 6 7 7 6 7 6 4 3 3 3 3 3 4 5 5 6 5
7 7 7 7 7 6 6 5 5 6 6 5 4 4 4 4 5 6 8 8 7 5 5 5 5 5 6 7 6 6 7 5 3 3 3 4 4 4 4 5 6 7 7
6 6 6 6 6 5 6 6 5 5 5 5 4 5 4 3 3 5 7 9 9 6 5 6 5 5 5 5 6 6 5 4 3 4 5 6 5 5 4 3 4 5 6
6 6 6 6 5 4 4 5 5 6 6 5 5 5 4 3 3 3 3 4 5 5 5 5 5 5 5 5 4 4 4 4 5 5 6 5 4 3 4 3 4 3 4
6 6 6 6 6 5 4 4 6 6 7 7 6 6 5 6 7 7 5 4 4 4 3 3 3 3 3 4 4 4 4 4 5 5 5 5 4 4 4 4 3 4 4
5 5 5 4 4 5 4 3 3 5 6 8 8 7 6 8 7 8 8 8 7 5 4 4 5 5 6 5 5 5 5 5 5 5 5 5 5 5 5 4 4 4 5
5 5 4 5 5 5 5 5 4 3 3 5 7 8 9 8 8 8 8 6 5 6 4 5 6 6 6 6 6 6 6 6 5 5 6 6 5 5 5 5 5 5 5
5 5 4 4 5 5 5 5 5 4 3 3 4 6 8 8 8 7 6 4 3 4 5 6 7 7 6 6 6 6 6 5 5 5 5 6 6 5 5 5 5 6 6
3 3 3 3 3 4 4 4 4 4 4 3 2 2 4 4 4 5 6 5 6 6 6 7 7 7 7 6 6 6 6 6 5 5 6 6 6 6 6 6 6 6 6
3 4 4 3 3 3 3 3 4 4 4 4 4 4 2 1 2 3 4 5 6 6 6 6 6 7 6 6 6 5 5 5 5 6 6 6 6 6 7 7 6 6 6
3 3 4 3 3 3 4 4 4 4 4 4 5 5 5 4 5 5 5 6 6 7 7 6 6 7 6 6 6 6 7 6 6 5 5 5 5 6 6 6 6 6 5
2 3 3 4 4 4 4 4 4 4 5 5 4 4 6 5 5 5 6 6 6 6 6 6 6 6 6 6 6 6 6 6 6 5 5 5 5 5 5 5 5 5 5
2 3 3 3 3 4 4 3 3 3 4 4 5 4 4 5 5 6 6 6 5 5 5 5 6 6 5 5 5 6 6 7 6 6 6 6 5 5 5 6 6 6 5
2 3 3 2 3 3 3 3 3 4 4 4 5 5 5 5 5 5 5 4 4 4 4 4 5 6 7 5 5 5 6 6 5 5 7 6 6 5 5 5 6 6 6
2 3 3 3 3 3 3 3 3 4 4 4 4 4 4 4 4 4 3 3 3 3 4 4 4 5 6 7 6 5 5 5 5 4 5 5 6 5 5 5 5 5 4
2 2 2 2 2 3 3 3 3 4 3 3 3 3 3 3 3 3 3 3 3 3 3 3 4 5 5 5 5 5 4 4 5 5 4 4 5 5 5 4 5 4 4
Wind_Direction
184 185 181 179 178 176 185 197 196 187 180 180 180 172 168 163 153 147 156 145 146 139 136 145 192 156 151 154 150 147 149 154 170 222 214 198 178 202 214 209 202 197 286
185 181 184 179 173 181 197 201 191 191 193 192 185 183 189 184 172 176 188 177 175 179 187 166 198 165 160 169 165 170 171 169 168 200 204 186 201 211 224 228 220 206 220
179 181 184 186 187 195 202 200 191 192 196 194 186 193 199 195 190 196 193 190 194 202 205 204 211 177 191 192 185 183 181 171 160 176 199 195 208 183 183 248 239 240 242
178 181 191 198 200 203 201 195 194 190 190 197 201 206 208 206 202 198 191 194 202 215 219 221 215 202 209 202 194 192 180 170 158 163 184 204 220 196 181 225 253 250 252
181 188 198 199 195 195 196 195 192 190 200 201 199 209 215 214 217 203 200 202 206 221 237 239 229 217 213 205 201 196 183 179 174 184 203 210 217 204 219 214 231 254 256
184 195 196 189 190 198 202 196 191 196 199 193 202 209 215 225 218 208 199 204 205 214 236 249 245 235 231 222 217 199 184 184 192 196 212 228 235 226 216 209 212 232 259
187 194 193 189 194 201 201 194 201 204 198 199 210 212 222 228 219 217 208 203 208 216 225 234 246 249 228 222 225 209 209 211 195 195 214 229 232 221 207 213 215 224 239
190 197 194 189 197 197 193 202 209 202 199 207 216 218 225 239 223 217 206 206 212 225 229 229 234 248 231 208 205 209 229 237 227 219 226 234 235 221 208 215 218 222 243
196 201 199 194 194 191 198 208 206 196 201 204 208 214 222 245 232 215 197 200 220 243 246 235 227 238 239 204 197 218 246 261 252 239 240 246 243 221 195 183 188 211 252
204 204 198 191 193 195 201 206 200 194 203 203 211 217 220 235 235 217 196 200 222 244 250 244 232 230 232 208 206 213 237 254 255 260 260 263 253 234 202 201 204 215 240
202 195 192 192 197 198 196 195 188 192 199 208 218 223 223 233 237 222 202 200 216 230 242 250 247 233 227 220 212 221 234 240 243 247 258 267 267 257 235 221 214 211 221
184 185 193 195 199 196 186 190 188 188 198 209 218 236 237 237 233 223 210 210 210 219 235 244 244 232 231 231 225 235 236 231 240 250 261 264 264 262 255 239 228 225 227
175 190 195 192 194 188 184 188 190 191 202 212 217 234 245 241 235 223 217 220 219 223 240 240 237 232 236 242 242 239 227 229 231 243 255 259 257 258 257 246 240 240 245
181 195 190 186 190 186 189 191 199 202 205 209 217 230 238 236 237 227 221 226 227 230 247 255 247 237 232 239 245 239 229 227 227 240 251 258 261 258 255 247 244 247 256
187 191 188 187 186 193 200 203 209 216 213 210 217 220 222 235 235 215 205 218 225 230 228 240 245 247 248 246 245 241 232 226 231 242 245 250 252 253 255 247 240 238 243
188 194 192 190 189 193 199 217 229 226 225 220 220 217 226 227 220 212 212 217 220 201 192 235 243 244 245 245 244 243 236 234 235 236 239 241 244 248 252 250 239 235 245
193 200 196 192 195 199 200 204 227 256 239 228 227 228 231 232 226 223 223 222 217 183 207 238 244 245 245 244 242 241 243 241 233 230 235 241 244 247 247 248 245 244 248
193 198 195 200 199 202 206 211 213 220 240 261 250 237 235 236 234 229 212 185 219 210 229 238 244 244 242 240 241 242 245 243 236 234 235 238 237 238 242 245 243 244 248
179 190 193 195 199 205 208 214 218 219 231 250 272 273 242 234 232 221 193 212 230 236 236 240 243 245 245 242 241 241 242 242 239 235 238 239 237 237 243 248 250 246 243
173 183 187 186 188 201 206 212 223 224 230 239 248 253 241 206 234 226 221 228 234 240 238 239 242 243 242 244 243 240 242 243 243 241 242 242 239 238 244 248 249 251 248
180 192 188 184 194 205 211 217 225 228 232 238 246 238 212 227 238 238 235 235 236 240 242 241 242 243 241 240 238 238 241 245 244 241 242 243 242 242 244 246 248 248 251
190 197 200 203 206 210 220 223 218 229 240 247 257 249 224 232 240 244 247 248 245 243 242 241 246 249 247 242 237 236 239 241 241 239 241 243 241 243 244 242 246 249 247
187 196 203 206 208 208 216 229 230 235 246 252 254 256 248 245 246 246 249 251 248 244 241 239 245 252 253 250 242 236 237 239 238 232 233 239 242 241 239 240 245 250 245
187 195 202 208 214 219 225 236 241 247 251 255 257 256 252 248 249 251 252 252 252 252 244 240 243 248 249 246 244 242 246 251 244 234 230 234 238 241 241 243 247 245 241
201 206 210 211 214 221 230 239 247 251 254 257 258 259 261 259 260 266 267 266 261 262 265 260 254 252 253 250 250 253 256 248 238 235 230 227 232 236 240 243 244 244 238
224 223 226 229 226 226 229 238 247 251 252 255 258 260 266 272 277 286 291 290 287 283 284 285 281 275 269 262 265 267 259 244 233 229 224 224 229 234 235 236 234 230 228
Height
1526 1529 1531 1533 1535 1536 1537 1539 1540 1540 1541 1541 1542 1541 1541 1541 1541 1541 1541 1541 1541 1540 1540 1540 1539 1539 1539 1539 1538 1538 1538 1538 1537 1537 1537 1537 1537 1537 1536 1536 1535 1534 1534
1525 1527 1529 1531 1533 1534 1536 1537 1538 1539 1540 1540 1540 1540 1540 1540 1540 1540 1540 1540 1540 1539 1539 1539 1538 1538 1538 1538 1537 1537 1537 1536 1536 1535 1535 1535 1535 1535 1535 1534 1534 1533 1533
1522 1525 1527 1529 1530 1532 1533 1535 1536 1537 1538 1538 1539 1539 1539 1539 1539 1539 1539 1539 1538 1538 1538 1538 1537 1537 1536 1536 1536 1535 1535 1535 1535 1534 1534 1534 1533 1533 1533 1533 1532 1532 1531
1520 1522 1524 1526 1528 1530 1531 1533 1534 1535 1536 1536 1537 1537 1538 1538 1537 1537 1537 1537 1537 1537 1536 1536 1536 1535 1535 1534 1534 1534 1533 1533 1533 1532 1532 1532 1531 1531 1531 1530 1530 1530 1529
1517 1519 1521 1524 1526 1528 1529 1530 1531 1532 1533 1534 1535 1535 1536 1536 1536 1536 1535 1535 1535 1535 1535 1534 1534 1533 1533 1533 1532 1532 1531 1531 1531 1530 1530 1530 1529 1529 1528 1528 1527 1527 1527
1513 1515 1518 1520 1523 1525 1526 1528 1528 1529 1530 1531 1532 1533 1533 1533 1534 1534 1533 1533 1533 1532 1532 1532 1532 1531 1531 1531 1530 1530 1529 1529 1528 1528 1527 1527 1526 1526 1526 1525 1525 1524 1523
1510 1513 1515 1517 1519 1521 1523 1524 1525 1526 1527 1528 1529 1529 1530 1530 1531 1531 1531 1531 1530 1530 1530 1529 1529 1529 1529 1529 1528 1528 1527 1527 1526 1526 1525 1524 1524 1523 1523 1522 1521 1521 1520
1506 1509 1512 1514 1516 1518 1519 1521 1522 1523 1524 1525 1526 1527 1527 1528 1528 1528 1528 1528 1527 1527 1527 1527 1526 1526 1526 1526 1525 1525 1524 1524 1523 1523 1522 1522 1521 1521 1520 1519 1518 1518 1517
1502 1505 1508 1510 1512 1514 1515 1517 1519 1519 1520 1521 1523 1523 1524 1524 1525 1525 1525 1525 1524 1524 1524 1524 1524 1523 1523 1523 1522 1521 1521 1520 1520 1519 1519 1518 1518 1517 1517 1515 1514 1514 1513
1498 1501 1504 1506 1508 1510 1511 1513 1515 1516 1517 1518 1519 1520 1520 1521 1521 1521 1522 1521 1521 1521 1521 1520 1520 1520 1520 1519 1518 1517 1517 1516 1516 1515 1515 1515 1514 1513 1513 1511 1511 1510 1509
1495 1497 1500 1502 1504 1506 1508 1510 1511 1512 1513 1514 1515 1515 1515 1517 1517 1517 1518 1517 1517 1517 1516 1516 1516 1516 1516 1516 1515 1514 1513 1513 1512 1512 1511 1510 1510 1509 1508 1507 1506 1506 1505
1491 1493 1496 1499 1501 1503 1504 1505 1507 1508 1509 1509 1510 1511 1511 1512 1513 1513 1513 1513 1513 1512 1512 1512 1512 1512 1512 1512 1511 1510 1510 1510 1509 1508 1507 1506 1505 1504 1504 1503 1503 1502 1501
1488 1490 1493 1495 1497 1499 1500 1501 1503 1504 1505 1505 1506 1506 1506 1507 1508 1508 1508 1509 1508 1508 1508 1508 1508 1508 1508 1507 1507 1506 1506 1505 1504 1503 1502 1501 1501 1501 1500 1499 1498 1497 1497
1484 1486 1489 1491 1493 1495 1496 1497 1499 1499 1500 1500 1501 1501 1502 1502 1503 1503 1503 1504 1504 1503 1503 1503 1503 1503 1502 1501 1501 1501 1500 1500 1499 1498 1498 1497 1497 1496 1495 1494 1493 1492 1491
1481 1483 1486 1487 1489 1491 1492 1492 1494 1495 1496 1496 1496 1497 1498 1497 1498 1498 1499 1499 1499 1499 1498 1498 1497 1497 1496 1495 1495 1495 1495 1494 1493 1493 1492 1492 1492 1491 1490 1490 1488 1487 1486
1478 1480 1481 1483 1484 1486 1487 1488 1488 1491 1492 1492 1492 1493 1493 1494 1494 1494 1494 1494 1494 1494 1493 1492 1491 1491 1490 1490 1490 1489 1489 1488 1487 1487 1487 1487 1486 1485 1485 1484 1483 1482 1481
1474 1476 1478 1479 1481 1482 1483 1483 1484 1485 1487 1487 1488 1489 1489 1489 1489 1489 1489 1489 1489 1488 1487 1486 1486 1485 1485 1484 1484 1483 1483 1482 1482 1481 1481 1481 1480 1480 1479 1478 1477 1477 1476
1471 1473 1475 1476 1478 1478 1479 1479 1480 1481 1481 1482 1483 1484 1484 1484 1484 1484 1484 1484 1482 1482 1481 1481 1480 1480 1479 1479 1478 1477 1477 1477 1476 1475 1475 1475 1474 1474 1473 1472 1472 1471 1470
1468 1469 1471 1473 1474 1475 1475 1476 1476 1476 1477 1477 1478 1479 1479 1479 1479 1479 1478 1478 1476 1476 1476 1475 1475 1475 1474 1473 1472 1472 1471 1471 1470 1470 1469 1469 1469 1468 1467 1466 1466 1465 1465
1465 1466 1468 1469 1470 1471 1471 1472 1472 1472 1473 1473 1474 1474 1474 1474 1473 1473 1472 1472 1471 1470 1470 1469 1469 1469 1468 1467 1466 1466 1465 1465 1464 1464 1463 1463 1462 1462 1461 1461 1460 1460 1459
1463 1464 1466 1466 1466 1467 1468 1468 1468 1468 1469 1469 1469 1469 1469 1469 1468 1468 1467 1466 1465 1464 1464 1463 1462 1462 1462 1461 1460 1460 1459 1459 1458 1458 1457 1456 1456 1455 1455 1455 1454 1454 1454
1461 1461 1462 1463 1463 1464 1464 1464 1464 1464 1465 1464 1464 1464 1463 1463 1462 1461 1461 1460 1459 1459 1458 1458 1457 1456 1455 1455 1454 1454 1453 1453 1452 1452 1451 1450 1450 1449 1449 1449 1448 1448 1448
1458 1458 1458 1459 1459 1459 1460 1460 1460 1460 1460 1460 1459 1458 1457 1457 1456 1455 1454 1454 1454 1453 1452 1451 1450 1449 1449 1448 1448 1447 1447 1447 1446 1446 1445 1444 1444 1443 1443 1443 1443 1443 1442
1455 1455 1455 1456 1456 1456 1456 1456 1456 1456 1456 1455 1454 1453 1452 1451 1450 1449 1448 1448 1447 1447 1446 1445 1444 1443 1443 1442 1441 1441 1441 1441 1440 1440 1439 1438 1438 1438 1438 1437 1437 1437 1437
1452 1452 1452 1452 1452 1452 1452 1453 1452 1452 1451 1450 1449 1448 1447 1445 1444 1443 1443 1442 1441 1440 1440 1439 1438 1437 1437 1436 1436 1435 1435 1435 1434 1434 1433 1433 1432 1432 1432 1432 1432 1432 1432
1448 1448 1448 1448 1448 1448 1449 1448 1448 1448 1447 1446 1445 1444 1442 1441 1440 1439 1437 1436 1435 1434 1434 1433 1432 1431 1431 1430 1430 1429 1429 1429 1428 1427 1427 1426 1426 1426 1426 1427 1427 1427 1427